Flag for U.S.A. Weather past 2 weeks in Olympia, Washington, U.S.A.

Now
58 °F

Passing clouds.


Feels Like: 56 °F
Forecast: 52 / 71 °F
Wind: 10 mph from West

Location: Olympia Airport

Current Time: Sep 2, 2014 at 9:55:16 PM

Latest Report: Sep 2, 2014 at 8:54 PM


Visibility: 10 mi

Pressure: 29.89 "Hg

Humidity: 70%

Dew point: 48 °F

Location of OlympiaLocation

Historic Weather in Olympia — Graph

°F

Olympia temperature yesterday

Maximum temperature yesterday: 75 °F (at 3:54 PM)
Minimum temperature yesterday: 52 °F (at 12:54 AM)
Average temperature yesterday: 62 °F

Past Weeks' High & Low Weather Summary

 TemperatureHumidityPressure
High90 °F (Aug 26, 4:54 PM)100% (Aug 22, 7:54 AM)30.16 "Hg (Aug 22, 7:54 AM)
Low45 °F (Aug 22, 5:54 AM)24% (Aug 26, 3:54 PM)29.80 "Hg (Aug 19, 4:54 PM)
Average64 °F72%29.99 "Hg
* Reported Aug 18 8:54 PM — Sep 2 8:54 PM, Olympia, Weather by CustomWeather, © 2014

Note: Actual official high and low records may vary slightly from our data, if they occured in-between our weather recording intervals... More about our weather records

Advertising

Olympia weather history for previous 24 hours

 ConditionsComfort  
Time TempWeatherWind HumidityBarometerVisibility
8:54 PM
Sep 2
58 °FPassing clouds.10 mph70%29.89 "Hg10 mi
7:54 PM60 °FPassing clouds.10 mph67%29.89 "Hg10 mi
6:54 PM62 °FPassing clouds.10 mph65%29.87 "Hg10 mi
5:54 PM64 °FLight rain. Scattered clouds.10 mph73%29.86 "Hg10 mi
4:54 PM65 °FBroken clouds.12 mph73%29.86 "Hg10 mi
3:54 PM65 °FMostly cloudy.13 mph68%29.88 "Hg10 mi
2:54 PM68 °FOvercast.13 mph57%29.89 "Hg10 mi
1:54 PM68 °FOvercast.13 mph53%29.90 "Hg10 mi
12:54 PM69 °FPartly sunny.13 mph47%29.90 "Hg10 mi
11:54 AM69 °FScattered clouds.5 mph51%29.91 "Hg10 mi
10:54 AM63 °FPartly sunny.8 mph73%29.93 "Hg10 mi
9:54 AM60 °FMore clouds than sun.10 mph80%29.94 "Hg10 mi
8:54 AM58 °FMostly cloudy.5 mph93%29.95 "Hg10 mi
7:56 AM57 °FLow clouds.7 mph93%29.95 "Hg10 mi
6:54 AM56 °FOvercast.No wind93%29.95 "Hg8 mi
5:54 AM56 °FLow clouds.3 mph97%29.95 "Hg8 mi
4:54 AM56 °FLow clouds.No wind97%29.96 "Hg8 mi
3:54 AM55 °FLow clouds.3 mph96%29.96 "Hg10 mi
2:54 AM53 °FMostly cloudy.No wind96%29.97 "Hg10 mi
1:54 AM54 °FClear.No wind97%29.98 "Hg10 mi
12:54 AM53 °FClear.No wind93%29.98 "Hg10 mi
11:54 PM
Sep 1
57 °FClear.No wind93%29.99 "Hg10 mi
10:54 PM58 °FClear.7 mph90%29.99 "Hg10 mi
9:54 PM59 °FClear.3 mph87%30.00 "Hg10 mi
Weather by CustomWeather, © 2014

See weather overviewHow to use our weather pages